• In Russia
  • List of Countries
  • For 7 days
  • Water Temperature
  • Weather Map
  • Weather Widgets
  • user-avatar
    Login

    Hourly Weather Kalgoorlie

    Today, 17 August, Saturday

    Time Temperature Precipitation Wind Pressure Humidity
    00:00 +10°C° 0 mm 7 mps 728 mmHg 57%
    01:00 +10°C° 0 mm 9 mps 728 mmHg 63%
    02:00 +9°C° 0 mm 11 mps 728 mmHg 74%
    03:00 +8°C° 0.1 mm 10 mps 729 mmHg 73%
    04:00 +7°C° 0.1 mm 8 mps 729 mmHg 72%
    05:00 +6°C° 0.1 mm 7 mps 729 mmHg 71%
    06:00 +6°C° 0 mm 8 mps 730 mmHg 69%
    07:00 +7°C° 0 mm 8 mps 731 mmHg 68%
    08:00 +7°C° 0 mm 8 mps 731 mmHg 65%
    09:00 +9°C° 0 mm 8 mps 731 mmHg 59%
    10:00 +10°C° 0 mm 9 mps 732 mmHg 53%
    11:00 +11°C° 0 mm 9 mps 732 mmHg 47%
    12:00 +11°C° 0 mm 9 mps 732 mmHg 44%
    13:00 +12°C° 0 mm 9 mps 732 mmHg 42%
    14:00 +12°C° 0 mm 9 mps 733 mmHg 38%
    15:00 +12°C° 0 mm 8 mps 733 mmHg 39%
    16:00 +11°C° 0 mm 8 mps 734 mmHg 40%
    17:00 +11°C° 0 mm 8 mps 734 mmHg 41%
    18:00 +10°C° 0 mm 7 mps 735 mmHg 44%
    19:00 +9°C° 0 mm 6 mps 736 mmHg 48%
    20:00 +8°C° 0 mm 5 mps 736 mmHg 52%
    21:00 +7°C° 0 mm 5 mps 737 mmHg 56%
    22:00 +7°C° 0 mm 5 mps 737 mmHg 60%
    23:00 +6°C° 0 mm 5 mps 737 mmHg 64%

    Tomorrow, 18 August, Sunday

    Time Temperature Precipitation Wind Pressure Humidity
    00:00 +6°C° 0 mm 5 mps 737 mmHg 67%
    01:00 +6°C° 0 mm 5 mps 737 mmHg 69%
    02:00 +5°C° 0 mm 5 mps 737 mmHg 72%
    03:00 +5°C° 0 mm 5 mps 737 mmHg 75%
    04:00 +3°C° 0 mm 5 mps 738 mmHg 78%
    05:00 +3°C° 0 mm 5 mps 738 mmHg 81%
    06:00 +5°C° 0 mm 5 mps 738 mmHg 79%
    07:00 +5°C° 0 mm 5 mps 739 mmHg 77%
    08:00 +5°C° 0 mm 6 mps 739 mmHg 76%
    09:00 +8°C° 0 mm 6 mps 740 mmHg 66%
    10:00 +9°C° 0 mm 6 mps 740 mmHg 56%
    11:00 +11°C° 0 mm 6 mps 740 mmHg 47%
    12:00 +13°C° 0 mm 5 mps 740 mmHg 43%
    13:00 +14°C° 0 mm 5 mps 739 mmHg 38%
    14:00 +14°C° 0 mm 5 mps 739 mmHg 34%
    15:00 +14°C° 0 mm 4 mps 739 mmHg 35%
    16:00 +14°C° 0 mm 4 mps 740 mmHg 36%
    17:00 +14°C° 0 mm 4 mps 740 mmHg 37%
    18:00 +13°C° 0 mm 4 mps 740 mmHg 41%
    19:00 +11°C° 0 mm 4 mps 741 mmHg 46%
    20:00 +10°C° 0 mm 4 mps 741 mmHg 50%
    21:00 +10°C° 0 mm 4 mps 741 mmHg 56%
    22:00 +8°C° 0 mm 4 mps 742 mmHg 62%
    23:00 +7°C° 0 mm 5 mps 742 mmHg 69%

    Day after tomorrow, 19 August, Monday

    Time Temperature Precipitation Wind Pressure Humidity
    00:00 +7°C° 0 mm 4 mps 742 mmHg 71%
    01:00 +6°C° 0 mm 4 mps 742 mmHg 73%
    02:00 +7°C° 0 mm 3 mps 742 mmHg 75%
    03:00 +7°C° 0 mm 3 mps 742 mmHg 76%
    04:00 +6°C° 0 mm 2 mps 742 mmHg 78%
    05:00 +6°C° 0 mm 2 mps 743 mmHg 80%
    06:00 +7°C° 0 mm 2 mps 743 mmHg 76%
    07:00 +7°C° 0 mm 2 mps 743 mmHg 73%
    08:00 +8°C° 0 mm 2 mps 744 mmHg 70%
    09:00 +9°C° 0 mm 2 mps 744 mmHg 64%
    10:00 +12°C° 0 mm 2 mps 744 mmHg 58%
    11:00 +13°C° 0 mm 2 mps 744 mmHg 53%
    12:00 +14°C° 0 mm 2 mps 743 mmHg 50%
    13:00 +15°C° 0 mm 2 mps 743 mmHg 48%
    14:00 +15°C° 0 mm 2 mps 742 mmHg 45%
    15:00 +15°C° 0 mm 2 mps 742 mmHg 45%
    16:00 +15°C° 0 mm 2 mps 742 mmHg 46%
    17:00 +15°C° 0 mm 2 mps 742 mmHg 46%
    18:00 +14°C° 0 mm 2 mps 742 mmHg 49%
    19:00 +14°C° 0 mm 2 mps 743 mmHg 52%
    20:00 +13°C° 0 mm 2 mps 743 mmHg 56%
    21:00 +12°C° 0 mm 2 mps 743 mmHg 57%
    22:00 +12°C° 0 mm 2 mps 743 mmHg 58%
    23:00 +10°C° 0 mm 2 mps 743 mmHg 59%

    20 August, Tuesday

    Time Temperature Precipitation Wind Pressure Humidity
    00:00 +10°C° 0 mm 2 mps 743 mmHg 60%
    01:00 +10°C° 0 mm 2 mps 743 mmHg 61%
    02:00 +9°C° 0 mm 2 mps 743 mmHg 62%
    03:00 +9°C° 0 mm 2 mps 743 mmHg 63%
    04:00 +9°C° 0 mm 2 mps 743 mmHg 64%
    05:00 +8°C° 0 mm 2 mps 743 mmHg 64%
    06:00 +9°C° 0 mm 2 mps 743 mmHg 62%
    07:00 +10°C° 0 mm 2 mps 744 mmHg 60%
    08:00 +10°C° 0 mm 2 mps 744 mmHg 58%
    09:00 +13°C° 0 mm 2 mps 744 mmHg 54%
    10:00 +14°C° 0 mm 2 mps 744 mmHg 50%
    11:00 +16°C° 0 mm 3 mps 744 mmHg 45%
    12:00 +16°C° 0 mm 3 mps 743 mmHg 43%
    13:00 +17°C° 0 mm 3 mps 742 mmHg 41%
    14:00 +18°C° 0 mm 3 mps 741 mmHg 38%
    15:00 +18°C° 0 mm 3 mps 741 mmHg 39%
    16:00 +18°C° 0 mm 3 mps 741 mmHg 40%
    17:00 +17°C° 0 mm 3 mps 741 mmHg 41%
    18:00 +16°C° 0 mm 3 mps 741 mmHg 43%
    19:00 +14°C° 0 mm 3 mps 742 mmHg 46%
    20:00 +13°C° 0 mm 3 mps 742 mmHg 49%
    21:00 +13°C° 0 mm 3 mps 742 mmHg 50%
    22:00 +13°C° 0 mm 3 mps 742 mmHg 51%
    23:00 +12°C° 0 mm 3 mps 741 mmHg 53%

    21 August, Wednesday

    Time Temperature Precipitation Wind Pressure Humidity
    00:00 +12°C° 0 mm 3 mps 741 mmHg 54%
    01:00 +11°C° 0 mm 3 mps 741 mmHg 56%
    02:00 +11°C° 0 mm 3 mps 740 mmHg 58%
    03:00 +10°C° 0 mm 3 mps 740 mmHg 60%
    04:00 +10°C° 0 mm 3 mps 740 mmHg 62%
    05:00 +10°C° 0 mm 3 mps 740 mmHg 64%
    06:00 +10°C° 0 mm 4 mps 741 mmHg 62%
    07:00 +11°C° 0 mm 4 mps 741 mmHg 60%
    08:00 +12°C° 0 mm 4 mps 741 mmHg 57%
    09:00 +13°C° 0 mm 5 mps 741 mmHg 52%
    10:00 +15°C° 0 mm 5 mps 741 mmHg 46%
    11:00 +17°C° 0 mm 6 mps 740 mmHg 41%
    12:00 +19°C° 0 mm 6 mps 739 mmHg 38%
    13:00 +19°C° 0 mm 5 mps 739 mmHg 36%
    14:00 +20°C° 0 mm 5 mps 738 mmHg 33%
    15:00 +20°C° 0 mm 5 mps 738 mmHg 35%
    16:00 +19°C° 0 mm 4 mps 737 mmHg 36%
    17:00 +19°C° 0 mm 3 mps 737 mmHg 38%
    18:00 +18°C° 0 mm 3 mps 737 mmHg 40%
    19:00 +17°C° 0 mm 3 mps 737 mmHg 43%
    20:00 +15°C° 0 mm 4 mps 738 mmHg 46%
    21:00 +14°C° 0 mm 4 mps 737 mmHg 48%
    22:00 +14°C° 0 mm 4 mps 737 mmHg 50%
    23:00 +13°C° 0 mm 4 mps 737 mmHg 52%

    22 August, Thursday

    Time Temperature Precipitation Wind Pressure Humidity
    00:00 +13°C° 0 mm 4 mps 736 mmHg 54%
    01:00 +12°C° 0 mm 5 mps 736 mmHg 55%
    02:00 +12°C° 0 mm 5 mps 736 mmHg 56%
    03:00 +10°C° 0 mm 5 mps 736 mmHg 57%
    04:00 +10°C° 0 mm 5 mps 735 mmHg 58%
    05:00 +10°C° 0 mm 5 mps 735 mmHg 59%
    06:00 +10°C° 0 mm 6 mps 735 mmHg 57%
    07:00 +11°C° 0 mm 6 mps 735 mmHg 55%
    08:00 +12°C° 0 mm 7 mps 735 mmHg 52%
    09:00 +15°C° 0 mm 7 mps 735 mmHg 45%
    10:00 +17°C° 0 mm 8 mps 735 mmHg 37%
    11:00 +20°C° 0 mm 8 mps 734 mmHg 29%
    12:00 +20°C° 0 mm 7 mps 734 mmHg 27%
    13:00 +21°C° 0 mm 7 mps 733 mmHg 24%
    14:00 +22°C° 0 mm 7 mps 732 mmHg 22%
    15:00 +21°C° 0 mm 6 mps 732 mmHg 23%
    16:00 +21°C° 0 mm 5 mps 732 mmHg 25%
    17:00 +20°C° 0 mm 3 mps 731 mmHg 26%
    18:00 +19°C° 0 mm 4 mps 731 mmHg 27%
    19:00 +18°C° 0 mm 4 mps 732 mmHg 27%
    20:00 +17°C° 0 mm 4 mps 732 mmHg 28%
    21:00 +15°C° 0 mm 4 mps 731 mmHg 28%
    22:00 +15°C° 0 mm 5 mps 731 mmHg 29%
    23:00 +14°C° 0 mm 5 mps 730 mmHg 29%
    Show more